Powrót do katalogu

COSMOS 1375 DEB

AktywnyLEO
NORAD 16210·DEBRIS·🇷🇺 Russia

Wystrzelony Jun 6, 1982 z Plesetsk Cosmodrome

Loading…

Następne Przeloty (najbliższe 24 godziny)

TLE

ŚwieżeSource: Space-Track

Epoka: Sep 14, 2026, 10:34 UTC

1 16210U 82055M   26257.44053539 -.00000068  00000-0  13008-4 0  9996
2 16210  65.8326 219.6267 0022133  18.5270  66.7701 13.74591189 52180

Śledź COSMOS 1375 DEB w czasie rzeczywistym z AllMySat

Download on the App Store